Regional Weather Roundup
Issued by NWS

Home | Current Version | Previous Version | Text Only | Print | Product List | Glossary Off
Versions: 1 2 3 4 5 6 7 8 9 10 11 12 13 14 15 16 17 18 19 20 21 22 23 24 25 26 27 28 29 30 31 32 33 34 35 36 37 38 39 40 41 42 43 44 45 46 47 48 49 50

000
ASUS43 KDMX 220101
RWRIA

WEATHER ROUNDUP FOR IOWA
NATIONAL WEATHER SERVICE DES MOINES IA
700 PM CST TUE FEB 21 2017

NOTE: "FAIR" INDICATES FEW OR NO CLOUDS BELOW 12,000 FEET WITH NO
SIGNIFICANT WEATHER AND/OR OBSTRUCTIONS TO VISIBILITY.

* - THESE STATIONS ARE NOT NWS STATIONS...THUS NOT UNDER NWS
QUALITY CONTROL.  THEY ALSO DO NOT REPORT WEATHER SUCH
AS PRECIPITATION OR FOG.

IAZ001>003-012>014-020>022-031>034-043>046-220200-
   NORTHWEST IOWA

CITY           SKY/WX    TMP DP  RH WIND       PRES   REMARKS
CARROLL *      CLEAR     52  43  71 S8        29.80S
CHEROKEE *     CLEAR     55  39  55 S12       29.74S
DENISON *      CLEAR     57  41  54 S18G24    29.76F
LE MARS *      CLEAR     55  37  50 SW6       29.73R
ORANGE CITY *  CLEAR     57  41  54 SW12      29.73R
SHELDON *      CLEAR     55  43  62 SW8       29.70S
SIOUX CITY     CLEAR     60  38  43 S13       29.73S
SPENCER        CLEAR     50  42  74 S9        29.73S
STORM LAKE *   CLEAR     52  43  71 S13       29.75F
$$

IAZ055>058-069>071-079>083-090>094-220200-
   SOUTHWEST IOWA

CITY           SKY/WX    TMP DP  RH WIND       PRES   REMARKS
ATLANTIC *     CLEAR     55  43  62 S10       29.83S
CLARINDA *     PTCLDY    50  39  66 SW3         N/A
COUNCIL BLFS * CLEAR     61  37  41 S12       29.82S
CRESTON *      CLEAR     52  36  54 S12       29.87S
HARLAN  *      CLEAR     52  43  71 S7        29.85S
LAMONI         CLEAR     57  33  40 SW7       29.87F
RED OAK *      CLEAR     54  43  66 S5        29.85S
SHENANDOAH *   CLEAR     54  39  58 S8        29.86S
$$

IAZ047>049-059>061-072>074-084-220200-
   CENTRAL IOWA

CITY           SKY/WX    TMP DP  RH WIND       PRES   REMARKS
AMES           CLEAR     52  39  61 S9        29.81F
ANKENY *       CLEAR     54  37  54 S7        29.83F
BOONE *        CLEAR     57  39  51 SW10      29.80F
CHARITON *     CLEAR     55  36  47 S7        29.86S
DES MOINES     CLEAR     57  33  40 S8        29.83F
GRINNELL*      PTCLDY    54  40  59 S8        29.85F
KNOXVILLE *    CLEAR     59  32  36 S8        29.84S
MARSHALLTOWN   CLEAR     53  39  59 S8        29.81F
NEWTON *       CLEAR     50  37  62 S8        29.83F
PELLA *        CLEAR     57  36  45 S7        29.86F
PERRY *          N/A     51  41  69 S12       29.82S
$$

IAZ004>006-015-016-023>025-035-036-220200-
   NORTH CENTRAL IOWA

CITY           SKY/WX    TMP DP  RH WIND       PRES   REMARKS
ALGONA *       CLEAR     52  46  82 S14       29.76F
CLARION *      CLEAR     48  46  93 S10       29.79R
ESTHERVILLE    CLEAR     51  44  77 S10       29.73S
FORT DODGE *   CLEAR     54  41  62 S10       29.79S
MASON CITY     CLEAR     45  42  89 S7        29.80S
FOREST CITY *    N/A     46  39  76 S7        29.78S
WEBSTER CITY * CLEAR     50  43  76 S10       29.78S
IOWA FALLS *     N/A     49  42  76 S8        29.81R
$$

IAZ007>011-017>019-026>030-037>042-050>054-066-220200-
   NORTHEAST IOWA

CITY           SKY/WX    TMP DP  RH WIND       PRES   REMARKS
CEDAR RAPIDS   CLEAR     51  40  65 S5        29.85F
CHARLES CITY * CLEAR     50  45  81 S10       29.81R
CLINTON *      MOCLDY    57  42  57 CALM      29.88F
DECORAH *      CLOUDY    50  43  76 S12       29.79F
DUBUQUE        MOCLDY    49  40  71 S6        29.87S
MONTICELLO *   PTCLDY    48  41  76 SE5       29.85F
OELWEIN *      CLEAR     48  45  87 S12       29.83F
WATERLOO       CLEAR     52  39  61 S8        29.81F
$$

IAZ064-065-067-068-078-220200-
   EAST CENTRAL IOWA

CITY           SKY/WX    TMP DP  RH WIND       PRES   REMARKS
DAVENPORT      CLEAR     53  43  68 CALM      29.88F
IOWA CITY      CLEAR     49  39  68 CALM      29.88S
MUSCATINE *    CLEAR     52  43  71 CALM      29.88S
QUAD CITIES    CLEAR     51  44  77 S5        29.87F
$$

IAZ062-063-075>077-085>089-095>099-220200-
   SOUTHEAST IOWA

CITY           SKY/WX    TMP DP  RH WIND       PRES   REMARKS
BURLINGTON     CLEAR     55  52  89 S7        29.88F
FAIRFIELD *    CLEAR     54  32  43 CALM      29.87S
KEOKUK *       CLEAR     59  54  82 SE7       29.88F
OTTUMWA        PTCLDY    55  29  36 S5        29.87S
WASHINGTON *   CLEAR     55  36  47 CALM      29.89R
$$

ABBREVIATIONS USED IN REMARKS
   TC - TEMPERATURES IN CELSIUS
  WCI - WIND CHILL INDEX
   HX - HEAT INDEX
  VSB - VISIBILITY
$$





USA.gov is the U.S. government's official web portal to all federal, state and local government web resources and services.